TOURFACTS.DK  
Stats and Facts from Tour de France.

Tour de France 2018 starts in 169 days
  Riders   Stages   Teams   Summits   Yearly  


 
Search by year

 2017 - St.21:
 14824 starters.
  5132 different riders.
  635 teams.
  2232 stages.
  454 restdays.
  439589.60 km.
  5653 abandonnees.


Top 3
GC
Christopher Froome86:20:55
Rigoberto Uran86:21:49
Romain Bardet86:23:15
Climb
Warren Barguil169 pt.
Primoz Roglic80 pt.
Thomas De Gendt64 pt.
Sprint
Michael Matthews359 pt.
André Greipel234 pt.
Edvald Boasson Hagen220 pt.
Youth
Simon Yates86:27:09
Louis Meintjes86:29:15
Emanuel Buchmann86:54:16
Facts from Tour de France 1975
  |   Stages.  |   Stage winners.  |   Days in yellow  |   Average speed.  |   Route.  |   Teams.  |   All riders.  |   Rookies.  |   Withdrawls.  |  

  |   GC.  |   Polka  |   Green  |   White  |   Summits. (In tour)  |   Summits. (Points)  |   Miscellaneous.  |  

Stage 14 on 11 - 07 - 1975
         Owning:    Eddy Merckx    
Pick a stage:  Pro 1a 1b 2 3 4 5 6 7 8 9a 9b 10 11 12 13 14 15 16 17 18 19 20 21 22
  AurillacPuy-de-Dôme | Dist: 173.50 km.
Cat: 3Col du Pas de Peyrol/Puy MarieBELLucien Van Impe
8 points
 
Cat: 4Côte de RouillasESPAntonio Menendez
3 points
 
Cat: 1Puy de DomeBELLucien Van Impe
20 points
 

Average speed for all riders in stage:  31,276 km./hr.
    Place:Name:Team:Time:Km/h:
BELLucien Van ImpeFRAGitane-Campagnolo05:26:51  +  00:00:00=31,849 
FRABernard ThevenetFRAPeugeot-BP-Michelin05:27:06  +  00:00:15=31,825 
BELEddy MerckxITAMolteni05:27:40  +  00:00:49=31,770 
4 NEDJoop ZoetemelkFRAGan-Mercier-Hutchinson05:27:40  +  00:00:49=31,770 
5 BELAndre DoyenBELMiko-De Gribaldy05:27:59  +  00:01:08=31,739 
6 BELMichel PollentierBELCarpenter Confortluxe-Flandria05:28:01  +  00:01:10=31,736 
7 ESPPedro TorresESPSuper Ser05:28:09  +  00:01:18=31,723 
8 ESPFrancisco GaldosESPKas-Kaskol05:28:10  +  00:01:19=31,722 
9 ESPMariano MartinezFRAGitane-Campagnolo05:28:11  +  00:01:20=31,720 
10 ITAFrancesco MoserITAFilotex05:28:21  +  00:01:30=31,704 
11 ITAFelice GimondiITABianchi-Campagnolo05:28:35  +  00:01:44=31,681 
12 SUIJosef FuchsITAFilotex05:28:43  +  00:01:52=31,669 
13 ESPAndré RomeroFRAJobo-Wolber05:29:00  +  00:02:09=31,641 
14 FRARégis OvionFRAPeugeot-BP-Michelin05:29:07  +  00:02:16=31,630 
15 ESPVicente LopezESPKas-Kaskol05:29:07  +  00:02:16=31,630 
16 FRARaymond MartinFRAGitane-Campagnolo05:29:10  +  00:02:19=31,625 
17 BELJos De SchoenmaeckerITAMolteni05:29:17  +  00:02:26=31,614 
18 NEDHennie KuiperNLDFrisol-G.B.C.05:29:30  +  00:02:39=31,593 
19 FRARaymond PoulidorFRAGan-Mercier-Hutchinson05:29:33  +  00:02:42=31,589 
20 DENOle RitterITAFilotex05:29:34  +  00:02:43=31,587 
21 FRARaymond DelisleFRAPeugeot-BP-Michelin05:29:36  +  00:02:45=31,584 
22 FRAGeorges TalbourdetFRAGan-Mercier-Hutchinson05:29:36  +  00:02:45=31,584 
23 FRAYves HézardFRAGan-Mercier-Hutchinson05:29:42  +  00:02:51=31,574 
24 FRAFerdinand JulienPRTSporting-Sottomayor05:29:59  +  00:03:08=31,547 
25 FRAJean-Pierre DanguillaumeFRAPeugeot-BP-Michelin05:29:59  +  00:03:08=31,547 
26 ESPSantiago LazcanoESPSuper Ser05:30:08  +  00:03:17=31,533 
27 PORJoaquim AgostinhoPRTSporting-Sottomayor05:30:08  +  00:03:17=31,533 
28 BELTony HoubrechtsITABianchi-Campagnolo05:30:13  +  00:03:22=31,525 
29 FRAHubert MathisBELMiko-De Gribaldy05:30:18  +  00:03:27=31,517 
30 ITASimone FraccaroITABianchi-Campagnolo05:30:21  +  00:03:30=31,512 
31 ITAFabrizio FabbriITABianchi-Campagnolo05:30:24  +  00:03:33=31,507 
32 ITARoberto PoggialiITAFilotex05:30:24  +  00:03:33=31,507 
33 BELAlbert Van VlierbergheBELMiko-De Gribaldy05:30:29  +  00:03:38=31,499 
34 ITAGiacinto SantambrogioITABianchi-Campagnolo05:30:51  +  00:04:00=31,464 
35 ESPLuis BalagueESPSuper Ser05:30:51  +  00:04:00=31,464 
36 ITASigfrido FontanelliITAFilotex05:31:07  +  00:04:16=31,439 
37 ESPCarlos MeleroESPKas-Kaskol05:31:07  +  00:04:16=31,439 
38 BELHerman Van SpringelBELCarpenter Confortluxe-Flandria05:31:13  +  00:04:22=31,430 
39 PORFernando FerreiraPRTSporting-Sottomayor05:31:22  +  00:04:31=31,415 
40 ESPJosé-Luis ViejoESPSuper Ser05:31:23  +  00:04:32=31,414 
41 FRAPatrick PerretBELMiko-De Gribaldy05:31:29  +  00:04:38=31,404 
42 COLMartìn RodríguezITABianchi-Campagnolo05:31:40  +  00:04:49=31,387 
43 BELEduard JanssensITAMolteni05:31:43  +  00:04:52=31,382 
44 NEDFedor Iwan Den HertogNLDFrisol-G.B.C.05:31:49  +  00:04:58=31,373 
45 BELRonald De WitteBELCarpenter Confortluxe-Flandria05:31:55  +  00:05:04=31,363 
46 BELJoseph SpruytITAMolteni05:31:58  +  00:05:07=31,359 
47 BELWilly TeirlinckFRAGitane-Campagnolo05:31:58  +  00:05:07=31,359 
48 ESPJosé CasasESPSuper Ser05:32:02  +  00:05:11=31,352 
49 FRASylvain VasseurESPSuper Ser05:32:02  +  00:05:11=31,352 
50 BELRené DillenFRAGitane-Campagnolo05:32:02  +  00:05:11=31,352 
51 FRAJean-Pierre GenetFRAGan-Mercier-Hutchinson05:32:09  +  00:05:18=31,341 
52 ESPAntonio MenendezESPKas-Kaskol05:32:09  +  00:05:18=31,341 
53 NEDGerben KarstensFRAGitane-Campagnolo05:32:18  +  00:05:27=31,327 
54 BELRoger LoyschBELMiko-De Gribaldy05:32:20  +  00:05:29=31,324 
55 NEDGerard VianenFRAGan-Mercier-Hutchinson05:32:29  +  00:05:38=31,310 
56 MARAntoine GutierrezBELMiko-De Gribaldy05:32:32  +  00:05:41=31,305 
57 ITARenato MarchettiITAFilotex05:32:34  +  00:05:43=31,302 
58 FRAJean-Claude MisacFRAGan-Mercier-Hutchinson05:32:38  +  00:05:47=31,296 
59 FRARichard PianaroFRAJobo-Wolber05:32:39  +  00:05:48=31,294 
60 FRAFrancis CampanerPRTSporting-Sottomayor05:32:41  +  00:05:50=31,291 
61 NEDHenk PrinsenNLDFrisol-G.B.C.05:32:41  +  00:05:50=31,291 
62 BELMarc DemeyerBELCarpenter Confortluxe-Flandria05:32:47  +  00:05:56=31,282 
63 FRABernard BourreauFRAPeugeot-BP-Michelin05:32:51  +  00:06:00=31,275 
64 FRAJoel HauvieuxFRAJobo-Wolber05:32:51  +  00:06:00=31,275 
65 FRARoger LegeayFRAJobo-Wolber05:32:51  +  00:06:00=31,275 
66 ESPJosé PesarrodonaESPKas-Kaskol05:32:56  +  00:06:05=31,268 
67 NEDGerrie KnetemannFRAGan-Mercier-Hutchinson05:33:05  +  00:06:14=31,253 
68 BELJosé De CauwerNLDFrisol-G.B.C.05:33:19  +  00:06:28=31,232 
69 ESPJosé GrandeESPKas-Kaskol05:33:25  +  00:06:34=31,222 
70 FRAMaurice Le GuillouxFRAGitane-Campagnolo05:33:31  +  00:06:40=31,213 
71 BELRik Van LindenITABianchi-Campagnolo05:33:31  +  00:06:40=31,213 
72 BELHerman BeysensITAMolteni05:33:36  +  00:06:45=31,205 
73 FRARobert MintkiewiczFRAGitane-Campagnolo05:34:16  +  00:07:25=31,143 
74 BELFrans Van VlierbergheBELMiko-De Gribaldy05:34:16  +  00:07:25=31,143 
75 BELJoseph HuysmansITAMolteni05:34:25  +  00:07:34=31,129 
76 FRAMichel PerinFRAGan-Mercier-Hutchinson05:34:29  +  00:07:38=31,123 
77 PORJosé AmaroPRTSporting-Sottomayor05:34:29  +  00:07:38=31,123 
78 FRAGuy LeleuFRAGitane-Campagnolo05:34:29  +  00:07:38=31,123 
79 FRAGerard MoneyronBELCarpenter Confortluxe-Flandria05:34:36  +  00:07:45=31,112 
80 BELWalter GodefrootBELCarpenter Confortluxe-Flandria05:34:43  +  00:07:52=31,101 
81 ITAGiovanni CavalcantiITABianchi-Campagnolo05:34:43  +  00:07:52=31,101 
82 ITAArnaldo CaverzasiITAFilotex05:34:59  +  00:08:08=31,076 
83 ITAMauro SimonettiITAFilotex05:35:07  +  00:08:16=31,064 
84 FRAAlain SantyFRAGitane-Campagnolo05:35:28  +  00:08:37=31,031 
85 BELLudo DelcroixITAMolteni05:35:34  +  00:08:43=31,022 
86 FRACharly RouxelFRAPeugeot-BP-Michelin05:35:40  +  00:08:49=31,013 
87 BELKarel RottiersITAMolteni05:35:55  +  00:09:04=30,990 
88 FRARegis DelepineBELCarpenter Confortluxe-Flandria05:36:00  +  00:09:09=30,982 
89 FRAPatrick BeonFRAPeugeot-BP-Michelin05:36:02  +  00:09:11=30,979 
90 ITASandro QuintarelliITAJollyceramica05:36:08  +  00:09:17=30,970 
91 BELMarc LievensITAMolteni05:36:40  +  00:09:49=30,921 
92 FRASerge ParsaniITABianchi-Campagnolo05:36:50  +  00:09:59=30,905 
93 ITAPietro DallaiITAFilotex05:36:57  +  00:10:06=30,895 
94 FRAGuy SibilleFRAPeugeot-BP-Michelin05:37:00  +  00:10:09=30,890 
95 FRAClaude MagniFRAJobo-Wolber05:37:25  +  00:10:34=30,852 
96 ITAPierino GavazziITAJollyceramica05:37:27  +  00:10:36=30,849 
97 ITALuigi CastellettiITABianchi-Campagnolo05:37:34  +  00:10:43=30,838 
98 BELFrans MintjensITAMolteni05:37:40  +  00:10:49=30,829 
99 FRAJoël MillardFRAJobo-Wolber05:37:53  +  00:11:02=30,809 
100 FRAAndré MolletPRTSporting-Sottomayor05:38:06  +  00:11:15=30,790 
101 ENGBarry HobanFRAGan-Mercier-Hutchinson05:38:08  +  00:11:17=30,787 
102 AUSDonald AllanNLDFrisol-G.B.C.05:38:26  +  00:11:35=30,759 
103 FRAJosé CatieauFRAPeugeot-BP-Michelin05:38:28  +  00:11:37=30,756 
104 FRAJacques BoulasFRAJobo-Wolber05:38:58  +  00:12:07=30,711 
105 NEDGerard KamperNLDFrisol-G.B.C.05:39:22  +  00:12:31=30,675 
106 ITAAlessio AntoniniITAJollyceramica05:48:00  +  00:21:09=29,914 
107 ITADonato GiulianiITAJollyceramica05:48:00  +  00:21:09=29,914 

Withdrawls: 3
 
Rider
Team
Reason
38  NORKnut KnudsenITAJollyceramicaDid not finish
126  NEDBen KokenNLDFrisol-G.B.C.Did not start
133  FRAAlain CiganaFRAJobo-WolberDid not finish

Todays birthdays.

1887  Marcel Godivier
1895  Louis Thuayre
1896  Léon Devos
1932  Aniceto Utset
1935  Willy Altig
1939  Sebastián Elorza
1941  René Binggeli
1948  Gerard Moneyron
1953  Patrocinio Jiménez
1954  Pierre Bazzo
1955  Serge Beucherie
1967  Antonio Politano
1969  Sergio Barbero
1977  Luca Paolini
1980  Gregory Rast
1981  Christophe Riblon
1985  Sebastian Langeveld
1990  Johan Esteban Chaves




Visits: